Location: Nordegg
(52.4712°N, 116.0743°W)
Time: 14:57:28
(UTC+00:00)

Envisat - Pass Details

Date: 01 December 2021
Orbit: 764 x 766 km, 98.2° (Epoch: 26 January)

Event Time Altitude Azimuth Distance (km) Brightness Sun altitude
Rises 00:19:52 0° 185° (S) 3,221 6.7 -6.7°
Reaches altitude 10° 00:22:17 10° 192° (SSW) 2,300 6.1 -7.0°
Maximum altitude 00:27:04 42° 263° (W) 1,091 4.5 -7.7°
Drops below altitude 10° 00:31:55 10° 334° (NNW) 2,317 5.5 -8.3°
Sets 00:34:22 0° 341° (NNW) 3,248 6.2 -8.7°
